Вернуться в каталог

STARLINK-11084

АктивенСвязьVLEO
NORAD 59717·PAYLOAD·🇺🇸 United States

Запущен May 10, 2024 с Vandenberg Space Force Base

Loading…

Ближайшие Пролёты (ближайшие 24 часа)

TLE

СвежийSource: CelesTrak SupGP

Эпоха: Sep 14, 2026, 21:35 UTC

1 59717C 24088K   26257.89979167 -.00049581  00000+0 -40848-3 0  2571
2 59717  53.1559 113.3849 0001198  95.8736 199.7372 15.69730148    18

Отслеживайте STARLINK-11084 в реальном времени с AllMySat

Download on the App Store